Canovanas, PR (00729)

10:47 AM AST on April 29, 2017 (GMT -0400)
Manejo de Emergencias Canovanas | | Change Station

Elev 56 ft 18.38 °N, 65.90 °W | Updated 1 minute ago

Rain
Rain
77.9 °F
Feels Like 80 °F
N
7.0
Wind Variable Wind from SE
Gusts 13.0 mph

Today
High -- | Low -- °F
--% Chance of Precip.
Yesterday
High -- | Low -- °F
Precip. -- in
Pressure 30.09 in
Visibility 10.0 miles
Clouds Few 2200 ft
Scattered Clouds 4800 ft
Mostly Cloudy 8500 ft
Heat Index 80 °F
Dew Point 78 °F
Humidity 100%
Rainfall Not available.
Snow Depth Not available.
5:57 AM 6:44 PM
Waxing Crescent, 14% visible
METAR TJSJ 291356Z 12010KT 10SM FEW022 SCT048 BKN085 28/24 A3009 RMK AO2 SLP187 SHRA DSNT NW T02830239 $
Pressure 30.09 in
Visibility 10.0 miles
Clouds Few 2200 ft
Scattered Clouds 4800 ft
Mostly Cloudy 8500 ft
Heat Index 80 °F
Dew Point 78 °F
Humidity 100%
Rainfall Not available.
Snow Depth Not available.
5:57 AM 6:44 PM
Waxing Crescent, 14% visible
METAR TJSJ 291356Z 12010KT 10SM FEW022 SCT048 BKN085 28/24 A3009 RMK AO2 SLP187 SHRA DSNT NW T02830239 $

Get Severe Weather Alerts

Thanks for signing up!

Be on the lookout for a verification email in your inbox.

You'll start receiving the daily forecast at 8 AM.

×

10-Day Weather Forecast

Almanac

Astronomy

Apr. 29, 2017 Rise Set
Actual Time
Civil Twilight
Nautical Twilight
Astronomical Twilight
Moon
Length of Visible Light
Length of Day
Tomorrow will be .
, % of the Moon is Illuminated

Today's Extremes

State Highs State Lows

Community

WunderPhotos

WunderBlog® & News

Nearby

Air Quality

  Air Quality AQ Index Pollutant
Not available.

Snow Depth

Station Depth Elevation

Earthquake Activity

City Distance Mag. Time & Date
Minimum magnitude displayed is 2.5.

Coastal Water Temperatures

Place Temperature

Stations

Nearby Weather Stations

Station Location Temp. Windchill Dew Point Humidity Wind Precip. Elev Updated Type
                   

Watches & Warnings

There are currently no watches in effect.